Tracking 30922 objects as of 2-Jul-2025
HD Live streaming from Space Station
objects crossing your sky now

ONEWEB-0508

Track ONEWEB-0508 now!
10-day predictions
ONEWEB-0508 is classified as:


NORAD ID: 54126
Int'l Code: 2022-138P
Perigee: 1,191.2 km
Apogee: 1,194.6 km
Inclination: 87.9 °
Period: 109.1 minutes
Semi major axis: 7563 km
RCS: Unknown
Launch date: October 22, 2022
Source: United Kingdom (UK)
Launch site: SRIHARIKOTA (SRI)
Your satellite tracking list
Your tracking list is empty




NASA's NSSDC Master Catalog

Two Line Element Set (TLE):
1 54126U 22138P   25182.54034506  .00000026  00000-0  32413-4 0  9994
2 54126  87.9216  14.6846 0002209  95.3611 264.7774 13.19724110130583
Source of the keplerian elements: AFSPC